[TLELIST] Archives

 

[TLELIST] Current TLEs

February 28th 2026 PDT

0 HST 1 20580U 90037B 26059.21998053 .00007705 00000-0 25546-3 0 9997 2 20580 28.4697 104.5911 0001442 29.0011 331.0665 15.29307981771866 0 ISS (ZARYA) 1 25544U 98067A 26059.21983326 .00010172 00000-0 19675-3 0 9998 2 25544 51.6325 119.1716 0008306 141.5469 218.6112 15.48355484554863 0 CXO 1 25867U 99040B 26060.95492292 .00000888 00000-0 00000-0 0 9990 2 25867 54.4516 119.8366 8010409 310.7933 0.3631 0.37807248 16916 ...Continue Reading

[TLELIST] Current TLEs

February 27th 2026 PDT

0 HST 1 20580U 90037B 26058.24111410 .00008127 00000-0 26999-3 0 9995 2 20580 28.4695 111.2668 0001391 17.2349 342.8294 15.29292719771718 0 ISS (ZARYA) 1 25544U 98067A 26058.25169714 .00013796 00000-0 26393-3 0 9998 2 25544 51.6322 123.9568 0008343 138.2013 221.9613 15.48333785554714 0 CXO 1 25867U 99040B 26060.95492292 .00000888 00000-0 00000-0 0 9990 2 25867 54.4516 119.8366 8010409 310.7933 0.3631 0.37807248 16916 ...Continue Reading

[TLELIST] Current TLEs

February 27th 2026 PDT

0 HST 1 20580U 90037B 26058.24111410 .00008127 00000-0 26999-3 0 9995 2 20580 28.4695 111.2668 0001391 17.2349 342.8294 15.29292719771718 0 ISS (ZARYA) 1 25544U 98067A 26058.25169714 .00013796 00000-0 26393-3 0 9998 2 25544 51.6322 123.9568 0008343 138.2013 221.9613 15.48333785554714 0 CXO 1 25867U 99040B 26060.95492292 .00000888 00000-0 00000-0 0 9990 2 25867 54.4516 119.8366 8010409 310.7933 0.3631 0.37807248 16916 ...Continue Reading

[TLELIST] Current TLEs

February 26th 2026 PDT

0 HST 1 20580U 90037B 26057.19697879 .00007066 00000-0 23393-3 0 9992 2 20580 28.4692 118.3875 0001324 4.9047 355.1562 15.29274667771556 0 ISS (ZARYA) 1 25544U 98067A 26057.21900081 .00012044 00000-0 23175-3 0 9993 2 25544 51.6320 129.0607 0008349 134.6702 225.4968 15.48304484554552 0 CXO 1 25867U 99040B 26058.30952098 .00000943 00000-0 00000-0 0 9993 2 25867 54.4003 119.9253 8017056 310.7831 0.2871 0.37805114 16909 ...Continue Reading

[TLELIST] Current TLEs

February 25th 2026 PDT

0 HST 1 20580U 90037B 26056.28335081 .00007140 00000-0 23653-3 0 9997 2 20580 28.4689 124.6179 0001260 353.4201 6.6378 15.29261769771419 0 ISS (ZARYA) 1 25544U 98067A 26056.18628621 .00010179 00000-0 19739-3 0 9993 2 25544 51.6318 134.1640 0008356 131.0189 229.1523 15.48279367554392 0 CXO 1 25867U 99040B 26058.30952098 .00000943 00000-0 00000-0 0 9993 2 25867 54.4003 119.9253 8017056 310.7831 0.2871 0.37805114 16909 ...Continue Reading

[TLELIST] Current TLEs

February 24th 2026 PDT

0 HST 1 20580U 90037B 26055.30445535 .00007577 00000-0 25159-3 0 9992 2 20580 28.4687 131.2938 0001204 340.4847 19.5702 15.29247409771266 0 ISS (ZARYA) 1 25544U 98067A 26055.21810240 .00011823 00000-0 22802-3 0 9998 2 25544 51.6318 138.9491 0008427 128.0072 232.1679 15.48257925554240 0 CXO 1 25867U 99040B 26055.66474549 .00000964 00000-0 00000-0 0 9992 2 25867 54.3476 120.0248 8022305 310.7540 0.3366 0.37806985 16906 ...Continue Reading

[TLELIST] Current TLEs

February 23rd 2026 PDT

0 HST 1 20580U 90037B 26053.93398554 .00008245 00000-0 27458-3 0 9994 2 20580 28.4686 140.6395 0001143 321.3922 38.6592 15.29225828771057 0 ISS (ZARYA) 1 25544U 98067A 26054.24990436 .00014749 00000-0 28254-3 0 9993 2 25544 51.6318 143.7335 0008466 124.8398 235.3387 15.48232437554094 0 CXO 1 25867U 99040B 26055.66474549 .00000964 00000-0 00000-0 0 9992 2 25867 54.3476 120.0248 8022305 310.7540 0.3366 0.37806985 16906 ...Continue Reading

[TLELIST] Current TLEs

February 22nd 2026 PDT

0 HST 1 20580U 90037B 26052.56349540 .00007071 00000-0 23461-3 0 9999 2 20580 28.4686 149.9853 0001090 298.8097 61.2389 15.29203976770842 0 ISS (ZARYA) 1 25544U 98067A 26052.76529868 .00010666 00000-0 20704-3 0 9991 2 25544 51.6320 151.0701 0008512 119.8639 240.3195 15.48189327553866 0 CXO 1 25867U 99040B 26055.66474549 .00000964 00000-0 00000+0 0 9991 2 25867 54.3476 120.0248 8022305 310.7540 0.3366 0.37806985 16906 ...Continue Reading

[TLELIST] Current TLEs

February 21st 2026 PDT

0 HST 1 20580U 90037B 26051.51930021 .00006899 00000-0 22882-3 0 9996 2 20580 28.4685 157.1051 0001109 279.2471 80.7999 15.29189195770683 0 ISS (ZARYA) 1 25544U 98067A 26052.24890538 .00011241 00000-0 21782-3 0 9996 2 25544 51.6322 153.6219 0008523 117.8535 242.3318 15.48178501553787 0 CXO 1 25867U 99040B 26053.02159877 .00001012 00000-0 00000-0 0 9999 2 25867 54.2829 120.1456 8026519 310.7149 0.6190 0.37809023 16897 ...Continue Reading

[TLELIST] Current TLEs

February 20th 2026 PDT

0 HST 1 20580U 90037B 26050.67088489 .00006837 00000-0 22680-3 0 9992 2 20580 28.4684 162.8909 0001061 272.1045 87.9429 15.29177707770552 0 ISS (ZARYA) 1 25544U 98067A 26051.21610692 .00009352 00000-0 18284-3 0 9996 2 25544 51.6324 158.7245 0008575 115.0388 245.1491 15.48153499553622 0 CXO 1 25867U 99040B 26053.02159877 .00001012 00000-0 00000-0 0 9999 2 25867 54.2829 120.1456 8026519 310.7149 0.6190 0.37809023 16897 ...Continue Reading
  • This mailing list is a public mailing list - anyone may join or leave, at any time.
  • This mailing list is announce-only.

International Space Station (ISS) / Hubble Space Telescope (HST) / Chandra X-Ray Observatory Orbital Data via EMAIL

Privacy Policy:

Private list